Flag for Germany Weather past 2 weeks in Cuxhaven, Lower Saxony, Germany

Now
61 °F

Drizzle. Fog.


Feels Like: 61 °F
Forecast: 56 / 67 °F
Wind: 13 mph from Northwest

Location: Nordholz

Current Time: Sep 1, 2014 at 10:08:25 PM

Latest Report: Sep 1, 2014 at 9:20 PM


Visibility: 2 mi

Pressure: 30.09 "Hg

Humidity: 94%

Dew point: 59 °F

Location of CuxhavenLocation

Historic Weather in Cuxhaven — Graph

°F

Cuxhaven temperature yesterday

Maximum temperature yesterday: 64 °F (at 2:20 PM)
Minimum temperature yesterday: 55 °F (at 5:20 AM)
Average temperature yesterday: 60 °F

Past Weeks' High & Low Weather Summary

 TemperatureHumidityPressure
High73 °F (Aug 28, 3:20 PM)100% (Aug 18, 4:56 PM)30.09 "Hg (Aug 18, 4:56 PM)
Low45 °F (Aug 26, 2:20 AM)43% (Aug 27, 1:20 PM)29.45 "Hg (Aug 18, 8:20 AM)
Average57 °F83%29.87 "Hg
* Reported Aug 17 8:20 PM — Sep 1 8:46 PM, Cuxhaven, Weather by CustomWeather, © 2014

Note: Actual official high and low records may vary slightly from our data, if they occured in-between our weather recording intervals... More about our weather records

Advertising

Cuxhaven weather history for previous 24 hours

 ConditionsComfort  
Time TempWeatherWind HumidityBarometerVisibility
8:46 PM
Sep 1
61 °FDrizzle. Fog.12 mph94%30.09 "Hg2 mi
8:20 PM61 °FDrizzle. Fog.10 mph94%30.09 "Hg2 mi
7:20 PM61 °FLight rain. Partly sunny.12 mph94%30.07 "Hg4 mi
6:20 PM63 °FBroken clouds.13 mph88%30.07 "Hg6 mi
5:47 PM63 °FBroken clouds.10 mph88%30.07 "HgN/A
5:20 PM63 °FPartly sunny.12 mph88%30.07 "HgN/A
4:20 PM64 °FPartly sunny.13 mph83%30.07 "HgN/A
3:20 PM64 °FBroken clouds.13 mph78%30.07 "HgN/A
2:20 PM64 °FBroken clouds.12 mph78%30.07 "HgN/A
1:20 PM63 °FDrizzle. Broken clouds.9 mph88%30.07 "Hg5 mi
12:20 PM63 °FBroken clouds.9 mph83%30.07 "HgN/A
11:20 AM63 °FPartly sunny.8 mph83%30.07 "HgN/A
10:20 AM64 °FScattered clouds.6 mph73%30.07 "HgN/A
9:20 AM63 °FPassing clouds.5 mph83%30.04 "HgN/A
8:20 AM61 °FPassing clouds.3 mph88%30.04 "HgN/A
7:20 AM57 °FPassing clouds.6 mph100%30.04 "HgN/A
6:20 AM57 °FPartly cloudy.3 mph100%30.04 "Hg6 mi
5:20 AM57 °FPassing clouds.5 mph100%30.04 "HgN/A
4:50 AM57 °FPassing clouds.5 mph100%30.01 "HgN/A
4:20 AM54 °FFog.2 mph100%30.01 "HgN/A
3:20 AM55 °FFog.3 mph100%30.01 "HgN/A
2:20 AM55 °FFog.3 mph94%30.01 "HgN/A
1:20 AM55 °FFog.3 mph100%30.01 "HgN/A
12:20 AM55 °FPassing clouds.5 mph100%29.98 "HgN/A
11:20 PM
Aug 31
57 °FPassing clouds.6 mph94%29.98 "HgN/A
10:20 PM59 °FPassing clouds.8 mph88%29.98 "HgN/A
Weather by CustomWeather, © 2014

See weather overviewHow to use our weather pages